Regional Weather Roundup
Issued by NWS

Home | Current Version | Previous Version | Text Only | Print | Product List | Glossary Off
Versions: 1 2 3 4 5 6 7 8 9 10 11 12 13 14 15 16 17 18 19 20 21 22 23 24 25 26 27 28 29 30 31 32 33 34 35 36 37 38 39 40 41 42 43 44 45 46 47 48 49 50

436
ASUS43 KOAX 090502
RWRNE

WEATHER ROUNDUP FOR NEBRASKA
NATIONAL WEATHER SERVICE OMAHA NE
1100 PM CST THU DEC 08 2016

NOTES: SATELLITE DATA IS BEING USED TO AUGMENT CLOUD COVER ABOVE
       12000 FEET.
       "FAIR" INDICATES FEW OR NO CLOUDS BELOW 12,000 FEET WITH NO
       SIGNIFICANT WEATHER AND/OR OBSTRUCTIONS TO VISIBILITY.

  * THESE STATIONS DO NOT REPORT WEATHER SUCH AS RAIN...SNOW OR FOG.

NEZ001>004-019>022-054>056-090600-
NEBRASKA PANHANDLE

CITY           SKY/WX    TMP DP  RH WIND       PRES   REMARKS
SCOTTSBLUFF    CLOUDY     6  -1  73 E12       30.30F WCI  -9
ALLIANCE       CLOUDY     1  -4  79 SE8       30.32F WCI -13
CHADRON        CLOUDY     1  -6  72 N5        30.36F WCI  -9
KIMBALL        CLOUDY     7   4  84 S9        30.23F WCI  -6
SIDNEY         CLOUDY     9   2  73 S13       30.30F WCI  -7
$$

NEZ057>060-069>072-079>082-090600-
SOUTHWEST NEBRASKA

CITY           SKY/WX    TMP DP  RH WIND       PRES   REMARKS
NORTH PLATTE   CLOUDY     3  -2  79 CALM      30.49F
IMPERIAL       CLOUDY     5   0  79 S5        30.44F WCI  -4
LEXINGTON      CLOUDY     5  -1  76 CALM      30.55S
MCCOOK         CLOUDY     1  -3  83 SW7       30.53F WCI -12
OGALLALA       CLEAR     10   3  75 S6        30.43F WCI   0
$$

NEZ005>010-023>029-035>040-094-090600-
NORTH CENTRAL NEBRASKA

CITY           SKY/WX    TMP DP  RH WIND       PRES   REMARKS
VALENTINE      CLOUDY    -5 -11  75 CALM      30.52R
AINSWORTH      CLOUDY    -1  -5  82 CALM      30.52S
BROKEN BOW     CLEAR     -3  -7  82 CALM      30.52F
O`NEILL        CLEAR      3  -2  81 N3        30.58S
ORD            CLEAR     -1  -6  79 SW3       30.57S
THEDFORD       CLOUDY     0  -6  77 CALM      30.49S
$$

NEZ041-046>049-061>064-073>077-083>087-090600-
SOUTH CENTRAL NEBRASKA

CITY           SKY/WX    TMP DP  RH WIND       PRES   REMARKS
GRAND ISLAND   CLEAR      6   1  80 W3        30.61R
AURORA         CLEAR      6   0  76 NW3       30.60S
HASTINGS       CLEAR      7   2  80 SW5       30.60S WCI  -2
HEBRON         CLEAR      8   5  87 CALM      30.64R
HOLDREGE       CLEAR      9   1  71 W3        30.56F
KEARNEY *      CLOUDY     9  -2  61 CALM      30.58S
YORK           CLEAR      5   0  78 CALM      30.61S
$$

NEZ011>018-030>034-042>045-090600-
NORTHEAST NEBRASKA

CITY           SKY/WX    TMP DP  RH WIND       PRES   REMARKS
NORFOLK        CLEAR      7   1  76 NW6       30.60F WCI  -3
ALBION         CLEAR      3  -2  79 NW3       30.60S
BLAIR          CLEAR     13   6  74 N7        30.61S WCI   3
FREMONT        CLEAR      9   4  80 CALM      30.63S
TEKAMAH        CLEAR     12   5  73 N8        30.65S WCI   0
WAYNE          CLEAR      5   2  85 CALM      30.62S
$$

NEZ050>053-065>068-078-088>093-090600-
SOUTHEAST NEBRASKA

CITY           SKY/WX    TMP DP  RH WIND       PRES   REMARKS
LINCOLN        CLEAR     11   5  77 CALM      30.66R
OMAHA EPPLEY   CLEAR     14   5  67 N8        30.65S WCI   3
BEATRICE       CLEAR     10   5  80 CALM      30.64R
FALLS CITY     CLEAR     12   7  80 NW5       30.65S WCI   4
NEBRASKA CITY  PTCLDY    15   5  64 NW6       30.63S WCI   6
PLATTSMOUTH    PTCLDY    13   4  68 N3        30.63S
$$

NEZ044-045-051>053-067-090600-
OMAHA AREA

CITY           SKY/WX    TMP DP  RH WIND       PRES   REMARKS
OMAHA EPPLEY   CLEAR     14   5  67 N8        30.65S WCI   3
BLAIR          CLEAR     13   6  74 N7        30.61S WCI   3
FREMONT        CLEAR      9   4  80 CALM      30.63S
MILLARD        CLEAR     18   7  63 CALM      30.64S
OFFUTT AFB     CLEAR     14   6  71 NW7       30.63F WCI   4
PLATTSMOUTH    PTCLDY    13   4  68 N3        30.63S
WAHOO          FAIR      10   4  75 NW6       30.63S WCI   1
$$




USA.gov is the U.S. government's official web portal to all federal, state and local government web resources and services.